This demonstration page uses our WeatherBlox Daily Observations layout. Learn more.

Left ArrowRight Arrow

Hourly Observations for August 9, 2020

Temp ( °F °C ) Dew Point ( °F °C ) Humidity (%) Winds ( mph kmh ) Pressure ( in mb ) Visibility ( mi km ) Precip ( " mm )
12:54 am 00:54 Clear 79 26.1 74 23.3 85 85 SE 8 13 29.88 1012 8 12.87472 0 0
1:54 am 01:54 Clear 78 25.6 73 22.8 85 85 SSE 8 13 29.88 1012 8 12.87472 0 0
2:54 am 02:54 Clear 77 25 73 22.8 88 88 SSE 10 17 29.86 1011 8 12.87472 0 0
3:54 am 03:54 Mostly Clear 76 24.4 72 22.2 88 88 S 8 13 29.84 1011 9 14.48406 0 0
4:40 am 04:40 Cloudy with Nearby Thunderstorms 78 25.6 72 22.2 82 82 W 9 15 29.87 1012 9 14.48406 0 0
4:54 am 04:54 Cloudy with Heavy Thunderstorms 77 25 72 22.2 85 85 NW 8 13 29.9 1013 4 6.43736 0.001 0.001
5:46 am 05:46 Partly Cloudy with Light Thunderstorms 78 25.6 67 19.4 69 69 ESE 18 30 29.8 1009 10 16.0934 0.19 4.826
5:51 am 05:51 Partly Cloudy with Light Rain 79 26 66 19 65 65 E 16 26 29.8 1009 10 16.0934 0.19 4.826
5:54 am 05:54 Partly Cloudy with Light Rain 78 25.6 67 19.4 69 69 SW 16 26 29.84 1011 10 16.0934 0.19 4.826
6:04 am 06:04 Mostly Clear with Light Rain 77 25 69 20.6 77 77 SE 17 28 29.81 1009 10 16.0934 0.001 0.001
6:18 am 06:18 Mostly Clear with Nearby Thunderstorms 77 25 68 20 74 74 SSE 15 24 29.82 1010 10 16.0934 0.001 0.001
6:54 am 06:54 Mostly Cloudy 75 23.9 70 21.1 84 84 NE 10 17 29.84 1011 10 16.0934 0.001 0.001
7:21 am 07:21 Mostly Sunny 76 24.4 68 20 77 77 SE 12 19 29.83 1010 9 14.48406 0 0
7:39 am 07:39 Partly Cloudy with Nearby Thunderstorms 75 23.9 68 20 79 79 S 8 13 29.85 1011 9 14.48406 0 0
7:54 am 07:54 Partly Cloudy 75 23.9 69 20.6 82 82 SSE 7 11 29.89 1012 9 14.48406 0 0
8:16 am 08:16 Partly Cloudy with Nearby Thunderstorms 75 23.9 69 20.6 82 82 NE 7 11 29.91 1013 9 14.48406 0 0
8:31 am 08:31 Partly Cloudy 76 24.4 69 20.6 79 79 NE 8 13 29.9 1012 9 14.48406 0 0
8:54 am 08:54 Mostly Sunny 76 24.4 69 20.6 79 79 E 7 11 29.88 1012 9 14.48406 0 0
9:54 am 09:54 Sunny 80 26.7 69 20.6 69 69 SSE 9 15 29.89 1012 9 14.48406 0 0
10:54 am 10:54 Sunny 86 30 68 20 55 55 SSE 17 28 29.84 1010 9 14.48406 0 0
11:54 am 11:54 Sunny 85 29.4 69 20.6 59 59 SSE 18 30 29.85 1011 9 14.48406 0 0
12:54 pm 12:54 Sunny 85 29.4 71 21.7 63 63 SSE 18 30 29.84 1010 9 14.48406 0 0
1:54 pm 13:54 Sunny 87 30.6 71 21.7 59 59 S 15 24 29.83 1010 9 14.48406 0 0
2:54 pm 14:54 Sunny 88 31.1 72 22.2 59 59 SSW 14 22 29.82 1010 9 14.48406 0 0
3:54 pm 15:54 Sunny 90 32.2 73 22.8 58 58 S 14 22 29.8 1009 9 14.48406 0 0
4:54 pm 16:54 Sunny 91 32.8 72 22.2 54 54 S 12 19 29.79 1009 9 14.48406 0 0
5:54 pm 17:54 Sunny 90 32.2 73 22.8 58 58 S 13 20 29.8 1009 9 14.48406 0 0
6:54 pm 18:54 Sunny 89 31.7 73 22.8 59 59 S 13 20 29.79 1009 9 14.48406 0 0
7:54 pm 19:54 Sunny 85 29.4 72 22.2 65 65 S 13 20 29.8 1009 9 14.48406 0 0
8:54 pm 20:54 Clear 81 27.2 72 22.2 74 74 S 5 7 29.82 1010 10 16.0934 0 0
9:54 pm 21:54 Clear 81 27.2 72 22.2 74 74 SSE 6 9 29.84 1010 10 16.0934 0 0
10:54 pm 22:54 Clear 79 26.1 72 22.2 79 79 Calm 29.84 1010 10 16.0934 0 0
11:54 pm 23:54 Clear 79 26.1 72 22.2 79 79 ESE 3 6 29.84 1010 10 16.0934 0 0

Powered by AerisWeather